www.pogodaiklimat.ru

Погода и климат >> Архив погоды >> Беларусь >> Ганцевичи


ПОГОДА в Ганцевичах

  • Прогноз погоды в Ганцевичах
  • Монитор погоды в Ганцевичах
  • Климат города

АРХИВ ПОГОДЫ в Ганцевичах

Время (UTC), дата Ветер
(напр.,м/с)
 
Видим.   Явления Облачность Т
(С)
Тd
(С)
f
(%)
Тe
(С)
Тes
(С)
Комфортность P
(гПа)
Po
(гПа)
Тmin
(С)
Tmax
(С)
R
(мм)
R24
(мм)
S
(см)
12 12.07 ЮВ 3 15 км 9/8 1050 м
[Cb calv Ac trans]
+24.4 +16.4 61 +28 +29 душно 1013.4 995.2
15 12.07 ЮВ 2 35 км {ливн. осадки} 9/8 930 м
[Cb calv Ac trans]
+23.3 +17.7 71 +29 +30 душно 1012.9 994.7
18 12.07 штиль 0 35 км {ливн. осадки} 9/0 2000 м
[Ac trans Ci fib]
+20.4 +17.3 82 +23 +23 комфорт 1012.3 993.9 +26.0 8
06 13.07 штиль 0 9000 м дымка 9/8 210 м
[St Ac trans]
+17.6 +17.1 97 +18 +19 1011.4 992.8 +16.3 14
09 13.07 З 2 30 км 6/3 600 м
[Cb calv Ac trans]
+21.4 +18.1 81 +26 +34 душно 1010.8 992.5
12 13.07 СЗ 2
{14}
6000 м 10 баллов +17.5 94 1011.0 992.6
15 13.07 СВ 1 35 км {ливн. осадки} 4/3 600 м
[Cb calv Ac trans]
+21.1 +16.1 73 +24 +28 комфорт 1009.9 991.7
18 13.07 С 1 35 км {ливн. осадки} 6/0 2000 м
[Ac trans Ci fib]
+18.4 +14.2 77 +20 +20 1010.2 991.7 +23.0 14
06 14.07 З 2 26 км 8/0 2000 м
[Ac trans Ci fib]
+16.9 +14.1 84 +17 +22 1009.3 990.7 +11.5
09 14.07 ЮЗ 2 35 км 8/4 600 м
[Cb calv Ac trans Ci fib]
+20.8 +13.5 63 +24 +30 комфорт 1008.5 990.2
12 14.07 Ю 1 6000 м слабый ливневой дождь, в посл. час гроза 9/9 750 м
[Cb cap]
+18.7 +16.5 87 +21 +22 комфорт 1007.8 989.4
15 14.07 ЮВ 1 35 км в посл. час гроза {ливн. осадки} 9/4 600 м
[Cb calv Ac trans Ci fib]
+18.1 +16.3 89 +19 +21 1007.6 989.1
18 14.07 штиль 0 22 км дымка {гроза, ливн. осадки} 4/0 2000 м
[Ac trans Ci fib]
+17.6 +16.6 94 +18 +18 1007.5 989.0 +22.7 9
06 15.07 С 1 10 км дымка 9/9 210 м
[Sc]
+15.9 +15.4 97 +17 +17 1008.4 989.8 +12.7
09 15.07 С 2 24 км дымка 9/9 270 м
[Sc]
+18.2 +16.2 88 +19 +21 1008.6 990.1
12 15.07 С 2 10 км в посл. час гроза {ливн. осадки} 4/4 600 м
[Cb calv]
+20.0 +17.0 83 +23 +32 комфорт 1007.8 989.5
15 15.07 ЮВ 3 35 км слабый ливневой дождь, в посл. час гроза 9/6 800 м
[Cb calv Ac trans]
+17.5 +14.4 82 +18 +18 1008.0 989.5
18 15.07 С 1 23 км дымка {гроза, ливн. осадки} 8/0 2000 м
[Ac trans Ci fib]
+18.6 +16.8 89 +21 +21 комфорт 1007.8 989.4 +23.3 0.9
06 16.07 СВ 2 25 км дымка 9/9 210 м
[Sc]
+17.3 +16.4 94 +18 +18 1007.9 989.4 +16.0 1
09 16.07 СВ 3 35 км 9/9 540 м
[Cb calv]
+21.4 +16.6 74 +25 +26 комфорт 1007.3 989.1
12 16.07 СВ 4 15 км 9/6 870 м
[Cb calv Ac trans]
+22.5 +16.1 67 +27 +29 душно 1007.0 988.8
15 16.07 СВ 2 10 км 10 баллов +22.0 +17.1 74 +26 +26 душно 1006.0 988.0
18 16.07 штиль 0 30 км слабый ливневой дождь 9/9 870 м
[Cb cap Ac trans]
+19.8 +18.7 93 +22 +22 комфорт 1006.2 987.9 +22.7 2
06 17.07 СВ 3 13 км ливневой дождь 10/10 270 м
[Cb cap]
+18.8 +18.1 96 +20 +20 1003.4 985.0 +17.6 14
09 17.07 С 1 18 км слабый ливневой дождь 10/10 840 м
[Cb cap]
+18.3 +17.5 95 +20 +20 1003.3 984.9
12 17.07 СВ 4 10 км {ливн. осадки} 9/8 900 м
[Cb calv Ac trans]
+22.2 +18.7 81 +28 +29 душно 1002.7 984.6
15 17.07 СВ 5
{10}
35 км 8/3 600 м
[Cb calv Ci fib]
+24.3 +19.7 76 +30 +31 очень
душно
1001.5 983.5
18 17.07 СВ 2 16 км в посл. час ливневой дождь 9/8 870 м
[Cb calv Ac trans]
+21.5 +20.6 95 +27 +27 душно 1002.2 984.1 +25.1 5
06 18.07 СВ 4 27 км 3/3 300 м
[St]
+22.3 +19.0 82 +28 +31 душно 1002.9 984.8 +17.1 0.1
09 18.07 СВ 4 10 км 10 баллов +26.3 +20.8 72 +33 +33 очень
душно
1003.0 985.3
12 18.07 СВ 4 20 км 6/3 600 м
[Cb calv Ac trans]
+26.5 +18.5 61 +31 +36 душно 1002.6 984.7
15 18.07 С 2 10 км 3 балла +28.1 +17.9 54 +33 +36 очень
душно
1002.0 984.4
18 18.07 С 1 10 км 10 баллов +25.8 +19.2 67 +31 +31 очень
душно
1003.0 985.3 +28.4
06 19.07 С 2 10 км ясно +20.9 +16.9 78 +25 +32 комфорт 1005.0 986.9 +16.8
09 19.07 СЗ 4 10 км 3 балла +25.1 +16.5 59 +29 +36 душно 1004.0 986.2

 

Местоположение метеостанции Ганцевичи (Брестская область, Беларусь): широта 52.75 долгота 26.44 высота над уровнем моря 157 м.

В архиве по умолчанию представлена погода в Ганцевичах за последнюю неделю. Архивные данные за месяц целиком и за предыдущие месяцы, начиная с января 2011 года, Вы можете получить, выбрав интересующий диапазон дат из раскрывающегося списка и нажав кнопку "Ввод!".


*Определитесь, кто Вы:
робот инопланетянин человек

Внимание! Время в таблицах - всемирное. Для получения местного времени необходимо прибавить поправку, которая в Ганцевичах равна 3 ч.

Смотрите также архив погоды в соседних городах и на ближайших метеорологических станциях:

Погода в Барановичах (Брестская область, Беларусь) (53 км)
Погода в Полесской (Брестская область, Беларусь) (53 км)
Погода в Ивацевичах (Брестская область, Беларусь) (73 км)
Погода в Пинске (Брестская область, Беларусь) (75 км)
Погода в Слуцке (Минская область, Беларусь) (81 км)
Погода в Столбцах (Минская область, Беларусь) (83 км)
Погода в Новогрудке (Гродненская область, Беларусь) (102 км)
Погода в Дрогичине (Брестская область, Беларусь) (109 км)
Погода в Житковичах (Гомельская область, Беларусь) (113 км)
Погода в Пружанах (Брестская область, Беларусь) (133 км)

Пояснения к столбцам:

Ветер - указаны скорость ветра в м/с - средняя за 10 мин, порывы в срок и между сроками (в фигурных скобках) и направление, откуда дует ветер: С - северный, СВ - северо-восточный, В - восточный, ЮВ - юго-восточный, Ю - южный, ЮЗ - юго-западный, З - западный, СЗ - северо-западный.
Видимость - горизонтальная дальность видимости в метрах или километрах. При видимости от 1 до 10 км при отсутствии осадков обычно наблюдается дымка, при ухудшении видимости до 1 км и менее - туман. В сухую погоду видимость может ухудшаться дымом, пылью или мглою.
Явления - указаны атмосферные явления, наблюдавшиеся в срок или в последний час перед сроком; фигурными скобками обозначены явления, наблюдавшиеся между сроками (за 1-3 часа до срока); квадратными скобками обозначены град или гололедные отложения с указанием их диаметра в мм.
Облачность - указаны через наклонную черту общая и нижняя облачность в баллах и высота нижней границы облаков в метрах; квадратными скобками обозначены формы облаков: Ci - перистые, Cs - перисто-слоистые, Cc - перисто-кучевые, Ac - высококучевые, As - высокослоистые, Sc - слоисто-кучевые, Ns - слоисто-дождевые, Cu - кучевые, Cb - кучево-дождевые. Подробнее классификацию облаков см. в Атласе облаков (PDF).
T - Температура воздуха - температура, измеренная на высоте 2 м над землей.
Td - Температура точки росы - температура, при понижении до которой содержащийся в воздухе водяной пар достигнет насыщения.
f - Относительная влажность воздуха - влажноcть воздуха, измеренная на высоте 2 м над землей.
Te - Эффективная температура - температура, которую ощущает одетый по сезону человек в тени. Характеристика душности погоды. При расчете учитывается влияние влажности воздуха и скорости ветра на теплоощущения человека.
Tes - Эффективная температура на солнце - температура, которую ощущает человек, с поправкой на солнечный нагрев. Характеристика знойности погоды. Зависит от высоты солнца над горизонтом, облачности и скорости ветра. Ночью, в пасмурную погоду, а также при ветре 12 м/с и более поправка равна нулю.
P - Атмосферное давление - приведенное к уровню моря атмосферное давление.
Po - Атмосферное давление - измеренное на уровне метеостанции атмосферное давление.
Tmin - Минимальная температура - минимум температуры воздуха на высоте 2 м над землей.
Tmax - Максимальная температура - максимум температуры воздуха на высоте 2 м над землей.
R - Количество осадков - Количество выпавших осадков за период времени, мм. При наведении курсора мыши на число - период времени, за который выпало указанное количество осадков.
R24 - Количество осадков - Количество выпавших осадков за 24 часа, мм.
S - Снежный покров - Высота снежного покрова, см. При наведении курсора мыши на число - состояние снежного покрова и степень покрытия местности в баллах.